#Datum;Uhrzeit;WR;Pac;DaySum;Status;WR;Pac;DaySum;Status;Pdc1;Udc;Temp;WR;Pac;DaySum;Status;Pdc1;Udc;Temp;WR;Pac;DaySum;Status;Pdc1;Udc;Temp;WR;Pac;DaySum;Status;Pdc1;Pdc2;Udc1;Udc2;Temp;WR;Pac;DaySum;Status;Pdc1;Pdc2;Udc1;Udc2;Temp;WR;Pac;DaySum;Status;Pdc1;Udc;Temp;WR;Pac;DaySum;Status;Pdc1;Udc;Temp;WR;Pac;DaySum;Status;Pdc1;Udc;Temp
06.03.18;23:55:00;1;210;12439;0;2;0;6105;0;0;0;0;3;0;3856;0;0;0;0;4;0;5264;0;0;0;0;5;0;13206;0;0;0;0;0;0;6;0;9577;0;0;0;0;0;0;7;0;6778;0;0;0;0;8;0;6801;0;0;0;0;9;0;3663;0;0;0;0
06.03.18;23:50:00;1;640;12421;0;2;0;6105;0;0;0;0;3;0;3856;0;0;0;0;4;0;5264;0;0;0;0;5;0;13206;0;0;0;0;0;0;6;0;9577;0;0;0;0;0;0;7;0;6778;0;0;0;0;8;0;6801;0;0;0;0;9;0;3663;0;0;0;0
06.03.18;23:45:00;1;231;12374;0;2;0;6105;0;0;0;0;3;0;3856;0;0;0;0;4;0;5264;0;0;0;0;5;0;13206;0;0;0;0;0;0;6;0;9577;0;0;0;0;0;0;7;0;6778;0;0;0;0;8;0;6801;0;0;0;0;9;0;3663;0;0;0;0
06.03.18;23:40:00;1;260;12354;0;2;0;6105;0;0;0;0;3;0;3856;0;0;0;0;4;0;5264;0;0;0;0;5;0;13206;0;0;0;0;0;0;6;0;9577;0;0;0;0;0;0;7;0;6778;0;0;0;0;8;0;6801;0;0;0;0;9;0;3663;0;0;0;0
06.03.18;23:35:00;1;255;12332;0;2;0;6105;0;0;0;0;3;0;3856;0;0;0;0;4;0;5264;0;0;0;0;5;0;13206;0;0;0;0;0;0;6;0;9577;0;0;0;0;0;0;7;0;6778;0;0;0;0;8;0;6801;0;0;0;0;9;0;3663;0;0;0;0
06.03.18;23:30:00;1;255;12310;0;2;0;6105;0;0;0;0;3;0;3856;0;0;0;0;4;0;5264;0;0;0;0;5;0;13206;0;0;0;0;0;0;6;0;9577;0;0;0;0;0;0;7;0;6778;0;0;0;0;8;0;6801;0;0;0;0;9;0;3663;0;0;0;0
06.03.18;23:25:00;1;795;12289;0;2;0;6105;0;0;0;0;3;0;3856;0;0;0;0;4;0;5264;0;0;0;0;5;0;13206;0;0;0;0;0;0;6;0;9577;0;0;0;0;0;0;7;0;6778;0;0;0;0;8;0;6801;0;0;0;0;9;0;3663;0;0;0;0
06.03.18;23:20:00;1;256;12239;0;2;0;6105;0;0;0;0;3;0;3856;0;0;0;0;4;0;5264;0;0;0;0;5;0;13206;0;0;0;0;0;0;6;0;9577;0;0;0;0;0;0;7;0;6778;0;0;0;0;8;0;6801;0;0;0;0;9;0;3663;0;0;0;0
06.03.18;23:15:00;1;257;12218;0;2;0;6105;0;0;0;0;3;0;3856;0;0;0;0;4;0;5264;0;0;0;0;5;0;13206;0;0;0;0;0;0;6;0;9577;0;0;0;0;0;0;7;0;6778;0;0;0;0;8;0;6801;0;0;0;0;9;0;3663;0;0;0;0
06.03.18;23:10:00;1;256;12196;0;2;0;6105;0;0;0;0;3;0;3856;0;0;0;0;4;0;5264;0;0;0;0;5;0;13206;0;0;0;0;0;0;6;0;9577;0;0;0;0;0;0;7;0;6778;0;0;0;0;8;0;6801;0;0;0;0;9;0;3663;0;0;0;0
06.03.18;23:05:00;1;218;12175;0;2;0;6105;0;0;0;0;3;0;3856;0;0;0;0;4;0;5264;0;0;0;0;5;0;13206;0;0;0;0;0;0;6;0;9577;0;0;0;0;0;0;7;0;6778;0;0;0;0;8;0;6801;0;0;0;0;9;0;3663;0;0;0;0
06.03.18;23:00:00;1;715;12155;0;2;0;6105;0;0;0;0;3;0;3856;0;0;0;0;4;0;5264;0;0;0;0;5;0;13206;0;0;0;0;0;0;6;0;9577;0;0;0;0;0;0;7;0;6778;0;0;0;0;8;0;6801;0;0;0;0;9;0;3663;0;0;0;0
06.03.18;22:55:00;1;231;12108;0;2;0;6105;0;0;0;0;3;0;3856;0;0;0;0;4;0;5264;0;0;0;0;5;0;13206;2;0;0;0;0;0;6;0;9577;2;0;0;0;0;0;7;0;6778;0;0;0;0;8;0;6801;0;0;0;0;9;0;3663;0;0;0;0
06.03.18;22:50:00;1;221;12088;0;2;0;6105;0;0;0;0;3;0;3856;0;0;0;0;4;0;5264;0;0;0;0;5;0;13206;2;0;0;0;0;0;6;0;9577;2;0;0;0;0;0;7;0;6778;0;0;0;0;8;0;6801;0;0;0;0;9;0;3663;0;0;0;0
06.03.18;22:45:00;1;189;12070;0;2;0;6105;0;0;0;0;3;0;3856;0;0;0;0;4;0;5264;0;0;0;0;5;0;13206;2;0;0;0;0;0;6;0;9577;2;0;0;0;0;0;7;0;6778;0;0;0;0;8;0;6801;0;0;0;0;9;0;3663;0;0;0;0
06.03.18;22:40:00;1;189;12054;0;2;0;6105;0;0;0;0;3;0;3856;0;0;0;0;4;0;5264;0;0;0;0;5;0;13206;2;0;0;0;0;0;6;0;9577;2;0;0;0;0;0;7;0;6778;0;0;0;0;8;0;6801;0;0;0;0;9;0;3663;0;0;0;0
06.03.18;22:35:00;1;547;12039;0;2;0;6105;0;0;0;0;3;0;3856;0;0;0;0;4;0;5264;0;0;0;0;5;0;13206;2;0;0;0;0;0;6;0;9577;2;0;0;0;0;0;7;0;6778;0;0;0;0;8;0;6801;0;0;0;0;9;0;3663;0;0;0;0
06.03.18;22:30:00;1;196;11994;0;2;0;6105;0;0;0;0;3;0;3856;0;0;0;0;4;0;5264;0;0;0;0;5;0;13206;2;0;0;0;0;0;6;0;9577;2;0;0;0;0;0;7;0;6778;0;0;0;0;8;0;6801;0;0;0;0;9;0;3663;0;0;0;0
06.03.18;22:25:00;1;215;11978;0;2;0;6105;0;0;0;0;3;0;3856;0;0;0;0;4;0;5264;0;0;0;0;5;0;13206;2;0;0;0;0;0;6;0;9577;2;0;0;0;0;0;7;0;6778;0;0;0;0;8;0;6801;0;0;0;0;9;0;3663;0;0;0;0
06.03.18;22:20:00;1;222;11959;0;2;0;6105;0;0;0;0;3;0;3856;0;0;0;0;4;0;5264;0;0;0;0;5;0;13206;2;0;0;0;0;0;6;0;9577;2;0;0;0;0;0;7;0;6778;0;0;0;0;8;0;6801;0;0;0;0;9;0;3663;0;0;0;0
06.03.18;22:15:00;1;248;11941;0;2;0;6105;0;0;0;0;3;0;3856;0;0;0;0;4;0;5264;0;0;0;0;5;0;13206;2;0;0;0;0;0;6;0;9577;2;0;0;0;0;0;7;0;6778;0;0;0;0;8;0;6801;0;0;0;0;9;0;3663;0;0;0;0
06.03.18;22:10:00;1;714;11920;0;2;0;6105;0;0;0;0;3;0;3856;0;0;0;0;4;0;5264;0;0;0;0;5;0;13206;2;0;0;0;0;0;6;0;9577;2;0;0;0;0;0;7;0;6778;0;0;0;0;8;0;6801;0;0;0;0;9;0;3663;0;0;0;0
06.03.18;22:05:00;1;308;11865;0;2;0;6105;0;0;0;0;3;0;3856;0;0;0;0;4;0;5264;0;0;0;0;5;0;13206;2;0;0;0;0;0;6;0;9577;2;0;0;0;0;0;7;0;6778;0;0;0;0;8;0;6801;0;0;0;0;9;0;3663;0;0;0;0
06.03.18;22:00:00;1;308;11838;0;2;0;6105;0;0;0;0;3;0;3856;0;0;0;0;4;0;5264;0;0;0;0;5;0;13206;2;0;0;0;0;0;6;0;9577;2;0;0;0;0;0;7;0;6778;0;0;0;0;8;0;6801;0;0;0;0;9;0;3663;0;0;0;0
06.03.18;21:55:00;1;279;11812;0;2;0;6105;0;0;0;0;3;0;3856;0;0;0;0;4;0;5264;0;0;0;0;5;0;13206;2;0;0;0;0;0;6;0;9577;2;0;0;0;0;0;7;0;6778;0;0;0;0;8;0;6801;0;0;0;0;9;0;3663;0;0;0;0
06.03.18;21:50:00;1;286;11787;0;2;0;6105;0;0;0;0;3;0;3856;0;0;0;0;4;0;5264;0;0;0;0;5;0;13206;2;0;0;0;0;0;6;0;9577;2;0;0;0;0;0;7;0;6778;0;0;0;0;8;0;6801;0;0;0;0;9;0;3663;0;0;0;0
06.03.18;21:45:00;1;646;11764;0;2;0;6105;0;0;0;0;3;0;3856;0;0;0;0;4;0;5264;0;0;0;0;5;0;13206;2;0;0;0;0;0;6;0;9577;2;0;0;0;0;0;7;0;6778;0;0;0;0;8;0;6801;0;0;0;0;9;0;3663;0;0;0;0
06.03.18;21:40:00;1;259;11710;0;2;0;6105;0;0;0;0;3;0;3856;0;0;0;0;4;0;5264;0;0;0;0;5;0;13206;2;0;0;0;0;0;6;0;9577;2;0;0;0;0;0;7;0;6778;0;0;0;0;8;0;6801;0;0;0;0;9;0;3663;0;0;0;0
06.03.18;21:35:00;1;259;11688;0;2;0;6105;0;0;0;0;3;0;3856;0;0;0;0;4;0;5264;0;0;0;0;5;0;13206;2;0;0;0;0;0;6;0;9577;2;0;0;0;0;0;7;0;6778;0;0;0;0;8;0;6801;0;0;0;0;9;0;3663;0;0;0;0
06.03.18;21:30:00;1;259;11666;0;2;0;6105;0;0;0;0;3;0;3856;0;0;0;0;4;0;5264;0;0;0;0;5;0;13206;2;0;0;0;0;0;6;0;9577;2;0;0;0;0;0;7;0;6778;0;0;0;0;8;0;6801;0;0;0;0;9;0;3663;0;0;0;0
06.03.18;21:25:00;1;257;11645;0;2;0;6105;0;0;0;0;3;0;3856;0;0;0;0;4;0;5264;0;0;0;0;5;0;13206;2;0;0;0;0;0;6;0;9577;2;0;0;0;0;0;7;0;6778;0;0;0;0;8;0;6801;0;0;0;0;9;0;3663;0;0;0;0
06.03.18;21:20:00;1;668;11623;0;2;0;6105;0;0;0;0;3;0;3856;0;0;0;0;4;0;5264;0;0;0;0;5;0;13206;2;0;0;0;0;0;6;0;9577;2;0;0;0;0;0;7;0;6778;0;0;0;0;8;0;6801;0;0;0;0;9;0;3663;0;0;0;0
06.03.18;21:15:00;1;253;11572;0;2;0;6105;0;0;0;0;3;0;3856;0;0;0;0;4;0;5264;0;0;0;0;5;0;13206;2;0;0;0;0;0;6;0;9577;2;0;0;0;0;0;7;0;6778;0;0;0;0;8;0;6801;0;0;0;0;9;0;3663;0;0;0;0
06.03.18;21:10:00;1;231;11552;0;2;0;6105;0;0;0;0;3;0;3856;0;0;0;0;4;0;5264;0;0;0;0;5;0;13206;2;0;0;0;0;0;6;0;9577;2;0;0;0;0;0;7;0;6778;0;0;0;0;8;0;6801;0;0;0;0;9;0;3663;0;0;0;0
06.03.18;21:05:00;1;214;11532;0;2;0;6105;0;0;0;0;3;0;3856;0;0;0;0;4;0;5264;0;0;0;0;5;0;13206;2;0;0;0;0;0;6;0;9577;2;0;0;0;0;0;7;0;6778;0;0;0;0;8;0;6801;0;0;0;0;9;0;3663;0;0;0;0
06.03.18;21:00:00;1;190;11514;0;2;0;6105;0;0;0;0;3;0;3856;0;0;0;0;4;0;5264;0;0;0;0;5;0;13206;2;0;0;0;0;0;6;0;9577;2;0;0;0;0;0;7;0;6778;0;0;0;0;8;0;6801;0;0;0;0;9;0;3663;0;0;0;0
06.03.18;20:55:00;1;1010;11498;0;2;0;6105;0;0;0;0;3;0;3856;0;0;0;0;4;0;5264;0;0;0;0;5;0;13206;2;0;0;0;0;0;6;0;9577;2;0;0;0;0;0;7;0;6778;0;0;0;0;8;0;6801;0;0;0;0;9;0;3663;0;0;0;0
06.03.18;20:50:00;1;190;11453;0;2;0;6105;0;0;0;0;3;0;3856;0;0;0;0;4;0;5264;0;0;0;0;5;0;13206;2;0;0;0;0;0;6;0;9577;2;0;0;0;0;0;7;0;6778;0;0;0;0;8;0;6801;0;0;0;0;9;0;3663;0;0;0;0
06.03.18;20:45:00;1;190;11437;0;2;0;6105;0;0;0;0;3;0;3856;0;0;0;0;4;0;5264;0;0;0;0;5;0;13206;2;0;0;0;0;0;6;0;9577;2;0;0;0;0;0;7;0;6778;0;0;0;0;8;0;6801;0;0;0;0;9;0;3663;0;0;0;0
06.03.18;20:40:00;1;190;11421;0;2;0;6105;0;0;0;0;3;0;3856;0;0;0;0;4;0;5264;0;0;0;0;5;0;13206;2;0;0;0;0;0;6;0;9577;2;0;0;0;0;0;7;0;6778;0;0;0;0;8;0;6801;0;0;0;0;9;0;3663;0;0;0;0
06.03.18;20:35:00;1;189;11405;0;2;0;6105;0;0;0;0;3;0;3856;0;0;0;0;4;0;5264;0;0;0;0;5;0;13206;2;0;0;0;0;0;6;0;9577;2;0;0;0;0;0;7;0;6778;0;0;0;0;8;0;6801;0;0;0;0;9;0;3663;0;0;0;0
06.03.18;20:30:00;1;590;11389;0;2;0;6105;0;0;0;0;3;0;3856;0;0;0;0;4;0;5264;0;0;0;0;5;0;13206;2;0;0;0;0;0;6;0;9577;2;0;0;0;0;0;7;0;6778;0;0;0;0;8;0;6801;0;0;0;0;9;0;3663;0;0;0;0
06.03.18;20:25:00;1;215;11344;0;2;0;6105;0;0;0;0;3;0;3856;0;0;0;0;4;0;5264;0;0;0;0;5;0;13206;2;0;0;0;0;0;6;0;9577;2;0;0;0;0;0;7;0;6778;0;0;0;0;8;0;6801;0;0;0;0;9;0;3663;0;0;0;0
06.03.18;20:20:00;1;230;11326;0;2;0;6105;0;0;0;0;3;0;3856;0;0;0;0;4;0;5264;0;0;0;0;5;0;13206;2;0;0;0;0;0;6;0;9577;2;0;0;0;0;0;7;0;6778;0;0;0;0;8;0;6801;0;0;0;0;9;0;3663;0;0;0;0
06.03.18;20:15:00;1;231;11307;0;2;0;6105;0;0;0;0;3;0;3856;0;0;0;0;4;0;5264;0;0;0;0;5;0;13206;2;0;0;0;0;0;6;0;9577;2;0;0;0;0;0;7;0;6778;0;0;0;0;8;0;6801;0;0;0;0;9;0;3663;0;0;0;0
06.03.18;20:10:00;1;203;11288;0;2;0;6105;0;0;0;0;3;0;3856;0;0;0;0;4;0;5264;0;0;0;0;5;0;13206;2;0;0;0;0;0;6;0;9577;2;0;0;0;0;0;7;0;6778;0;0;0;0;8;0;6801;0;0;0;0;9;0;3663;0;0;0;0
06.03.18;20:05:00;1;593;11270;0;2;0;6105;0;0;0;0;3;0;3856;0;0;0;0;4;0;5264;0;0;0;0;5;0;13206;2;0;0;0;0;0;6;0;9577;2;0;0;0;0;0;7;0;6778;0;0;0;0;8;0;6801;0;0;0;0;9;0;3663;0;0;0;0
06.03.18;20:00:00;1;189;11227;0;2;0;6105;0;0;0;0;3;0;3856;0;0;0;0;4;0;5264;0;0;0;0;5;0;13206;2;0;0;0;0;0;6;0;9577;2;0;0;0;0;0;7;0;6778;0;0;0;0;8;0;6801;0;0;0;0;9;0;3663;0;0;0;0
06.03.18;19:55:00;1;189;11211;0;2;0;6105;0;0;0;0;3;0;3856;0;0;0;0;4;0;5264;0;0;0;0;5;0;13206;2;0;0;0;0;0;6;0;9577;2;0;0;0;0;0;7;0;6778;0;0;0;0;8;0;6801;0;0;0;0;9;0;3663;0;0;0;0
06.03.18;19:50:00;1;284;11195;0;2;0;6105;0;0;0;0;3;0;3856;0;0;0;0;4;0;5264;0;0;0;0;5;0;13206;2;0;0;0;0;0;6;0;9577;2;0;0;0;0;0;7;0;6778;0;0;0;0;8;0;6801;0;0;0;0;9;0;3663;0;0;0;0
06.03.18;19:45:00;1;778;11169;0;2;0;6105;0;0;0;0;3;0;3856;0;0;0;0;4;0;5264;0;0;0;0;5;0;13206;2;0;0;0;0;0;6;0;9577;2;0;0;0;0;0;7;0;6778;0;0;0;0;8;0;6801;0;0;0;0;9;0;3663;0;0;0;0
06.03.18;19:40:00;1;707;11086;0;2;0;6105;0;0;0;0;3;0;3856;0;0;0;0;4;0;5264;0;0;0;0;5;0;13206;2;0;0;0;0;0;6;0;9577;2;0;0;0;0;0;7;0;6778;0;0;0;0;8;0;6801;0;0;0;0;9;0;3663;0;0;0;0
06.03.18;19:35:00;1;579;11033;0;2;0;6105;0;0;0;0;3;0;3856;0;0;0;0;4;0;5264;0;0;0;0;5;0;13206;2;0;0;0;0;0;6;0;9577;2;0;0;0;0;0;7;0;6778;0;0;0;0;8;0;6801;0;0;0;0;9;0;3663;0;0;0;0
06.03.18;19:30:00;1;621;10985;0;2;0;6105;0;0;0;0;3;0;3856;0;0;0;0;4;0;5264;0;0;0;0;5;0;13206;2;0;0;0;0;0;6;0;9577;2;0;0;0;0;0;7;0;6778;0;0;0;0;8;0;6801;0;0;0;0;9;0;3663;0;0;0;0
06.03.18;19:25:00;1;1158;10933;0;2;0;6105;0;0;0;0;3;0;3856;0;0;0;0;4;0;5264;0;0;0;0;5;0;13206;2;0;0;0;0;0;6;0;9577;2;0;0;0;0;0;7;0;6778;0;0;0;0;8;0;6801;0;0;0;0;9;0;3663;0;0;0;0
06.03.18;19:20:00;1;635;10852;0;2;0;6105;0;0;0;0;3;0;3856;0;0;0;0;4;0;5264;0;0;0;0;5;0;13206;2;0;0;0;0;0;6;0;9577;2;0;0;0;0;0;7;0;6778;0;0;0;0;8;0;6801;0;0;0;0;9;0;3663;0;0;0;0
06.03.18;19:15:00;1;547;10801;0;2;0;6105;0;0;0;0;3;0;3856;0;0;0;0;4;0;5264;0;0;0;0;5;0;13206;2;0;0;0;0;0;6;0;9577;2;0;0;0;0;0;7;0;6778;0;0;0;0;8;0;6801;0;0;0;0;9;0;3663;0;0;0;0
06.03.18;19:10:00;1;541;10755;0;2;0;6105;0;0;0;0;3;0;3856;0;0;0;0;4;0;5264;0;0;0;0;5;0;13206;2;0;0;0;0;0;6;0;9577;2;0;0;0;0;0;7;0;6778;0;0;0;0;8;0;6801;0;0;0;0;9;0;3663;0;0;0;0
06.03.18;19:05:00;1;1323;10708;0;2;0;6105;0;0;0;0;3;0;3856;0;0;0;0;4;0;5264;0;0;0;0;5;0;13206;2;0;0;0;0;0;6;0;9577;2;0;0;0;0;0;7;0;6778;0;0;0;0;8;0;6801;0;0;0;0;9;0;3663;0;0;0;0
06.03.18;19:00:00;1;508;10635;0;2;0;6105;0;0;0;0;3;0;3856;0;0;0;0;4;0;5264;0;0;0;0;5;0;13206;2;0;0;0;0;0;6;0;9577;2;0;0;0;0;0;7;0;6778;0;0;0;0;8;0;6801;0;0;0;0;9;0;3663;0;0;0;0
06.03.18;18:55:00;1;510;10593;0;2;0;6105;0;0;0;0;3;0;3856;0;0;0;0;4;0;5264;0;0;0;0;5;0;13206;2;0;0;0;0;0;6;0;9577;2;0;0;0;0;0;7;0;6778;0;0;0;0;8;0;6801;0;0;0;0;9;0;3663;0;0;0;0
06.03.18;18:50:00;1;510;10550;0;2;0;6105;0;0;0;0;3;0;3856;0;0;0;0;4;0;5264;0;0;0;0;5;0;13206;2;0;0;0;0;0;6;0;9577;2;0;0;0;0;0;7;0;6778;0;0;0;0;8;0;6801;0;0;0;0;9;0;3663;0;0;0;0
06.03.18;18:45:00;1;711;10508;0;2;0;6105;0;0;0;0;3;0;3856;0;0;0;0;4;0;5264;0;0;0;0;5;0;13206;2;0;0;0;0;0;6;0;9577;2;0;0;0;0;0;7;0;6778;0;0;0;0;8;0;6801;0;0;0;0;9;0;3663;0;0;0;0
06.03.18;18:40:00;1;522;10436;0;2;0;6105;0;0;0;0;3;0;3856;0;0;0;0;4;0;5264;0;0;0;0;5;0;13206;2;0;0;0;0;0;6;0;9577;2;0;0;0;0;0;7;0;6778;0;0;0;0;8;0;6801;0;0;0;0;9;0;3663;0;0;0;0
06.03.18;18:35:00;1;554;10392;0;2;0;6105;0;0;0;0;3;0;3856;0;0;0;0;4;0;5264;0;0;0;0;5;0;13206;2;0;0;0;0;0;6;0;9577;2;0;0;0;0;0;7;0;6778;0;0;0;0;8;0;6801;0;0;0;0;9;0;3663;0;0;0;0
06.03.18;18:30:00;1;557;10345;0;2;0;6105;0;0;0;0;3;0;3856;0;0;0;0;4;0;5264;0;0;0;0;5;0;13206;2;0;0;0;0;0;6;0;9577;2;0;0;0;0;0;7;0;6778;0;0;0;0;8;0;6801;0;0;0;0;9;0;3663;0;0;0;0
06.03.18;18:25:00;1;1285;10279;0;2;0;6105;0;0;0;0;3;0;3856;0;0;0;0;4;0;5264;0;0;0;0;5;0;13206;2;0;0;0;0;0;6;0;9577;2;0;0;0;0;0;7;0;6778;0;0;0;0;8;0;6801;0;0;0;0;9;0;3663;0;0;0;0
06.03.18;18:20:00;1;1126;10167;0;2;0;6105;0;0;0;0;3;0;3856;0;0;0;0;4;0;5264;0;0;0;0;5;0;13206;2;0;0;0;0;0;6;0;9577;2;0;0;0;0;0;7;0;6778;0;0;0;0;8;0;6801;0;0;0;0;9;0;3663;0;0;0;0
06.03.18;18:15:00;1;561;10097;0;2;0;6105;0;0;0;0;3;0;3856;0;0;35;1;4;0;5264;0;0;0;0;5;0;13206;2;0;0;0;0;0;6;0;9577;2;0;0;0;0;0;7;0;6778;0;0;0;0;8;0;6801;0;0;0;0;9;0;3663;0;0;0;0
06.03.18;18:10:00;1;547;10049;0;2;0;6105;0;0;175;6;3;0;3856;6;0;285;12;4;0;5264;0;0;0;0;5;0;13206;2;0;0;0;0;0;6;0;9577;2;0;0;0;0;0;7;0;6778;0;0;0;0;8;0;6801;0;0;0;0;9;0;3663;0;0;0;0
06.03.18;18:05:00;1;537;10003;0;2;0;6105;6;0;306;9;3;0;3856;6;0;355;12;4;0;5264;0;0;64;6;5;0;13206;2;0;0;79;79;5;6;0;9577;2;1;0;28;28;2;7;0;6778;0;0;0;0;8;0;6801;0;0;0;0;9;0;3663;0;0;0;0
06.03.18;18:00:00;1;890;9958;0;2;0;6105;6;0;355;9;3;0;3856;6;2;421;12;4;0;5264;1;0;126;8;5;0;13206;26;0;0;355;381;20;6;0;9577;23;7;3;180;477;19;7;0;6778;0;0;165;6;8;0;6801;0;0;167;6;9;0;3663;0;0;230;6
06.03.18;17:55:00;1;590;9884;0;2;0;6105;6;0;398;9;3;0;3856;6;3;479;13;4;0;5264;1;0;198;8;5;10;13206;26;2;4;418;655;20;6;0;9577;23;6;3;222;573;20;7;0;6778;6;1;380;12;8;0;6801;6;0;384;11;9;0;3663;6;0;424;8
06.03.18;17:50:00;1;765;9832;0;2;3;6105;6;8;403;9;3;0;3856;6;0;531;13;4;0;5264;3;0;223;8;5;83;13205;4;20;22;379;597;21;6;19;9577;1;15;12;549;466;20;7;0;6778;6;2;438;12;8;0;6801;6;2;442;11;9;0;3663;6;1;483;8
06.03.18;17:45:00;1;815;9770;0;2;5;6105;6;10;417;10;3;2;3856;4;12;497;13;4;1;5264;3;1;200;9;5;122;13197;4;47;41;379;597;21;6;65;9575;4;36;22;453;278;21;7;6;6778;6;12;450;12;8;2;6801;6;4;476;12;9;2;3663;3;7;502;8
06.03.18;17:40:00;1;1195;9701;0;2;27;6104;6;44;388;10;3;6;3855;3;19;500;13;4;6;5264;3;6;200;9;5;142;13187;4;55;53;379;597;21;6;74;9570;4;39;22;453;278;21;7;1;6778;6;9;479;12;8;7;6801;6;17;450;12;9;1;3663;6;5;528;8
06.03.18;17:35:00;1;963;9600;0;2;62;6102;4;91;370;10;3;5;3855;6;11;529;13;4;17;5263;3;18;198;9;5;181;13175;4;80;70;379;597;21;6;96;9563;4;47;30;453;278;21;7;27;6778;6;47;414;12;8;34;6800;6;56;391;12;9;3;3663;6;7;547;9
06.03.18;17:30:00;1;1141;9530;0;2;101;6097;4;130;382;10;3;37;3854;6;57;512;13;4;49;5262;3;51;198;9;5;248;13159;4;115;103;379;597;21;6;131;9555;4;88;56;453;278;21;7;66;6776;4;93;432;12;8;65;6798;4;92;418;12;9;12;3663;6;20;518;9
06.03.18;17:25:00;1;2744;9423;0;2;177;6089;4;208;385;11;3;100;3851;4;142;515;14;4;122;5258;3;127;224;9;5;381;13138;4;187;162;396;597;21;6;198;9544;4;108;66;452;278;21;7;143;6770;4;177;447;12;8;149;6793;4;185;446;12;9;68;3662;6;92;492;9
06.03.18;17:20:00;1;2709;9196;0;2;182;6074;4;213;381;11;3;103;3843;4;145;511;14;4;128;5248;5;134;228;9;5;388;13106;4;190;169;404;597;21;6;203;9527;4;114;75;453;278;21;7;173;6759;4;197;445;12;8;169;6780;4;200;438;12;9;90;3657;4;119;501;9
06.03.18;17:15:00;1;2892;8946;0;2;191;6059;4;223;380;11;3;110;3835;4;153;514;14;4;142;5237;5;148;229;9;5;410;13073;4;204;176;397;597;21;6;216;9510;4;132;85;453;278;21;7;181;6744;4;220;470;12;8;190;6766;4;224;434;12;9;99;3649;4;129;503;9
06.03.18;17:10:00;1;2538;8697;0;2;221;6043;4;255;392;11;3;133;3825;4;174;494;14;4;166;5225;5;173;228;9;5;477;13039;4;238;203;402;608;21;6;247;9492;4;172;109;453;278;21;7;206;6729;4;241;452;12;8;203;6751;4;241;442;12;9;112;3641;4;139;491;9
06.03.18;17:05:00;1;2557;8485;0;2;266;6025;4;302;394;11;3;161;3814;4;203;517;14;4;207;5212;5;216;235;9;5;558;12998;4;281;241;405;619;21;6;286;9471;4;179;107;453;278;21;7;259;6712;4;294;462;12;8;264;6734;4;293;467;12;9;137;3632;4;170;517;9
06.03.18;17:00:00;1;2546;8272;0;2;270;6003;4;307;402;11;3;164;3801;4;208;519;14;4;215;5194;5;224;234;9;5;580;12951;4;294;249;404;645;21;6;287;9448;4;155;93;453;278;21;7;270;6690;4;304;481;12;8;269;6712;4;309;481;12;9;144;3621;4;177;529;9
06.03.18;16:55:00;1;1570;8061;0;2;270;5980;4;306;390;11;3;167;3787;4;209;513;14;4;210;5176;5;219;235;9;5;578;12903;4;296;246;408;644;21;6;286;9423;4;173;108;453;278;21;7;272;6668;4;306;461;12;8;266;6689;4;310;481;12;9;147;3608;4;178;514;9
06.03.18;16:50:00;1;524;7964;0;2;266;5958;4;300;400;11;3;160;3773;4;205;508;14;4;207;5159;5;216;234;9;5;558;12855;4;290;235;409;613;21;6;281;9399;4;175;106;453;278;21;7;261;6645;4;301;464;12;8;272;6667;4;307;473;12;9;144;3596;4;174;527;9
06.03.18;16:45:00;1;381;7921;0;2;245;5935;4;280;383;11;3;150;3760;4;189;513;14;4;188;5141;5;196;230;9;5;536;12808;4;271;229;406;643;21;6;267;9376;4;164;103;453;278;21;7;244;6624;4;274;477;12;8;251;6644;4;283;470;12;9;129;3584;4;162;525;9
06.03.18;16:40:00;1;370;7889;0;2;239;5915;4;274;392;11;3;139;3747;4;180;524;14;4;180;5126;5;188;233;9;5;513;12764;4;255;218;408;624;21;6;263;9353;4;170;105;453;278;21;7;240;6603;4;265;479;12;8;226;6623;4;262;487;12;9;125;3573;4;158;521;9
06.03.18;16:35:00;1;1202;7858;0;2;221;5895;4;255;393;11;3;127;3736;4;167;530;14;4;162;5110;5;168;229;9;5;474;12721;4;244;197;416;597;21;6;244;9332;4;171;106;453;278;21;7;217;6583;4;253;467;12;8;213;6604;4;250;478;12;9;117;3563;4;148;511;9
06.03.18;16:30:00;1;370;7748;0;2;208;5876;4;241;384;11;3;123;3725;4;164;515;14;4;152;5097;5;158;231;9;5;460;12682;4;228;183;408;597;21;6;232;9311;4;147;94;453;278;21;7;198;6565;4;241;465;12;8;202;6586;4;236;474;12;9;112;3553;4;139;502;9
06.03.18;16:25:00;1;373;7717;0;2;195;5859;4;228;376;11;3;112;3715;4;154;520;14;4;144;5084;5;150;229;9;5;426;12644;4;207;184;383;597;21;6;221;9292;4;165;105;453;278;21;7;185;6548;4;225;434;12;8;189;6569;4;227;441;12;9;104;3544;4;131;493;9
06.03.18;16:20:00;1;840;7686;0;2;194;5843;4;225;382;11;3;115;3706;4;154;503;14;4;137;5072;5;143;228;9;5;413;12608;4;201;179;386;597;21;6;222;9273;4;178;117;453;278;21;7;171;6532;4;204;408;12;8;176;6553;4;208;413;12;9;96;3535;4;124;483;9
06.03.18;16:15:00;1;2127;7607;0;2;207;5826;4;241;393;11;3;124;3696;4;163;503;14;4;147;5061;5;153;226;9;5;458;12573;4;227;191;399;623;21;6;230;9255;4;117;74;453;278;21;7;199;6518;4;227;430;13;8;196;6539;4;235;457;12;9;105;3527;4;135;488;9
06.03.18;16:10:00;1;490;7442;0;2;212;5809;4;248;389;11;3;125;3686;4;166;514;14;4;159;5049;5;166;227;9;5;478;12535;4;230;202;405;644;21;6;245;9235;4;139;90;453;278;21;7;206;6501;4;246;449;13;8;211;6522;4;252;460;12;9;114;3518;4;144;499;9
06.03.18;16:05:00;1;333;7410;0;2;212;5792;4;248;395;11;3;123;3675;4;165;520;14;4;162;5035;5;169;229;9;5;476;12495;4;235;200;407;635;21;6;243;9215;4;158;101;453;278;21;7;207;6484;4;249;449;13;8;216;6505;4;253;459;12;9;113;3509;4;143;517;9
06.03.18;16:00:00;1;398;7382;0;2;214;5774;4;249;388;11;3;126;3665;4;168;518;14;4;159;5022;5;166;227;9;5;483;12456;4;241;212;416;655;21;6;243;9195;4;157;98;453;278;21;7;212;6467;4;252;454;13;8;218;6487;4;250;434;12;9;115;3499;4;145;514;9
06.03.18;15:55:00;1;406;7349;0;2;242;5756;4;274;386;11;3;139;3654;4;179;525;14;4;186;5009;5;194;230;9;5;534;12415;4;272;229;406;627;21;6;264;9175;4;169;107;453;278;21;7;234;6449;4;269;467;13;8;233;6469;4;275;451;12;9;126;3489;4;156;522;10
06.03.18;15:50:00;1;684;7315;0;2;258;5736;4;291;387;11;3;157;3643;4;198;511;14;4;199;4993;5;207;230;9;5;566;12371;4;287;240;402;639;21;6;280;9152;4;152;92;453;278;21;7;260;6430;4;293;457;13;8;264;6449;4;296;461;12;9;137;3479;4;168;518;10
06.03.18;15:45:00;1;405;7252;0;2;210;5714;4;246;385;11;3;127;3630;4;166;506;14;4;158;4976;5;165;231;9;5;460;12325;4;229;189;394;597;21;6;236;9129;4;144;93;453;278;21;7;208;6408;4;245;464;13;8;211;6427;4;248;471;12;9;114;3468;4;144;513;10
06.03.18;15:40:00;1;382;7218;0;2;186;5697;4;220;381;11;3;108;3619;4;149;512;14;4;139;4963;5;145;230;10;5;402;12287;4;198;176;379;597;21;6;215;9109;4;167;104;453;278;21;7;181;6391;4;215;451;13;8;174;6410;4;215;474;12;9;96;3458;4;124;484;10
06.03.18;15:35:00;1;383;7186;0;2;164;5681;4;195;385;11;3;97;3610;4;136;493;14;4;110;4951;5;115;226;10;5;364;12253;4;186;159;379;597;21;6;197;9091;4;126;82;453;278;21;7;146;6375;4;182;428;13;8;151;6395;4;186;438;12;9;81;3450;4;109;493;10
06.03.18;15:30:00;1;891;7154;0;2;162;5667;4;194;387;11;3;95;3602;4;134;494;14;4;105;4942;5;110;227;10;5;366;12223;4;178;160;379;597;21;6;195;9075;4;122;77;453;278;21;7;146;6363;4;178;388;13;8;154;6382;4;192;449;12;9;84;3443;4;110;484;10
06.03.18;15:25:00;1;377;7066;0;2;166;5654;4;196;387;11;3;98;3594;4;136;487;14;4;121;4933;5;125;228;10;5;372;12192;4;189;157;383;597;21;6;213;9059;4;131;95;453;324;21;7;153;6351;4;186;398;13;8;153;6370;4;191;411;12;9;84;3436;4;109;462;10
06.03.18;15:20:00;1;375;7034;0;2;190;5640;4;221;386;11;3;114;3586;4;152;493;14;4;139;4923;5;145;225;10;5;424;12161;4;210;176;397;597;21;6;289;9041;4;129;157;468;532;21;7;158;6338;4;188;374;13;8;166;6357;4;192;390;13;9;89;3429;4;119;504;10
06.03.18;15:15:00;1;370;7003;0;2;205;5624;4;240;388;11;3;124;3576;4;162;500;14;4;148;4911;5;154;229;10;5;447;12126;4;218;186;398;597;21;6;345;9016;4;185;187;590;557;21;7;188;6325;4;214;421;13;8;184;6343;4;216;414;13;9;99;3422;4;127;486;10
06.03.18;15:10:00;1;398;6972;0;2;226;5607;4;262;389;12;3;134;3566;4;174;513;14;4;175;4899;5;182;226;10;5;496;12088;4;248;212;403;627;21;6;373;8987;4;194;197;582;563;21;7;207;6309;4;241;442;13;8;207;6327;4;239;435;13;9;109;3413;4;139;498;10
06.03.18;15:05:00;1;584;6923;0;2;235;5588;4;273;392;12;3;145;3555;4;185;507;14;4;180;4884;5;187;230;10;5;521;12047;4;262;223;407;627;21;6;393;8955;4;193;201;575;560;21;7;231;6292;4;270;445;13;8;234;6310;4;264;473;13;9;125;3404;4;156;519;10
06.03.18;15:00:00;1;333;6884;0;2;269;5568;4;305;387;12;3;167;3542;4;206;499;14;4;207;4869;5;216;231;10;5;576;12003;4;294;246;403;622;21;6;436;8922;4;230;248;577;561;21;7;251;6273;4;278;449;13;8;238;6291;4;270;468;13;9;129;3394;4;160;516;10
06.03.18;14:55:00;1;298;6856;0;2;326;5546;4;367;401;12;3;203;3529;4;242;502;14;4;265;4852;5;276;237;10;5;704;11954;4;352;300;410;683;21;6;522;8885;4;261;259;581;569;21;7;340;6252;4;373;468;13;8;338;6271;4;373;458;13;9;179;3383;4;212;524;10
06.03.18;14:50:00;1;306;6831;0;2;363;5519;4;401;401;12;3;224;3512;4;267;518;15;4;290;4830;5;302;236;10;5;786;11894;4;391;332;416;667;21;6;578;8841;4;310;320;585;566;21;7;383;6224;4;418;476;13;8;388;6243;4;427;467;13;9;207;3368;4;243;517;10
06.03.18;14:45:00;1;1012;6805;0;2;407;5489;4;447;405;12;3;254;3493;4;298;518;15;4;338;4806;5;352;242;10;5;874;11829;4;444;370;417;672;21;6;655;8792;4;349;345;600;569;21;7;429;6192;4;469;483;13;8;435;6211;4;475;470;13;9;234;3351;4;267;517;10
06.03.18;14:40:00;1;308;6750;0;2;394;5455;4;436;410;12;3;247;3472;4;293;512;15;4;328;4778;5;341;239;10;5;856;11756;4;430;367;423;685;21;6;649;8738;4;352;345;599;570;21;7;439;6156;4;480;483;13;8;443;6174;4;484;481;13;9;239;3332;4;275;525;11
06.03.18;14:35:00;1;308;6724;0;2;375;5422;4;419;402;12;3;231;3451;4;276;494;15;4;310;4750;5;322;237;10;5;811;11685;4;411;350;415;679;21;6;615;8685;4;313;322;592;568;21;7;400;6120;4;441;462;13;8;404;6138;4;444;479;13;9;219;3312;4;252;524;11
06.03.18;14:30:00;1;311;6699;0;2;402;5391;4;443;408;12;3;251;3432;4;296;517;15;4;339;4724;5;353;237;10;5;894;11616;4;433;380;423;695;21;6;665;8634;4;329;337;595;574;21;7;411;6086;4;458;452;13;8;429;6104;4;465;479;13;9;228;3293;4;263;513;11
06.03.18;14:25:00;1;789;6673;0;2;447;5357;4;492;406;12;3;279;3411;4;324;517;15;4;372;4696;5;387;239;10;5;982;11541;4;494;418;424;683;21;6;726;8578;4;362;366;599;573;21;7;459;6052;4;502;470;13;8;470;6068;4;514;478;13;9;251;3275;4;289;518;11
06.03.18;14:20:00;1;325;6617;0;2;460;5320;4;503;409;12;3;284;3388;4;332;524;15;4;387;4665;5;403;238;10;5;984;11460;4;492;416;424;690;21;6;742;8517;4;381;371;594;577;21;7;469;6014;4;513;478;13;8;481;6029;4;518;490;13;9;257;3254;4;293;526;11
06.03.18;14:15:00;1;232;6592;0;2;439;5282;4;481;402;12;3;276;3364;4;320;508;15;4;368;4633;5;383;239;10;5;957;11378;4;476;407;423;702;21;6;719;8455;4;365;368;601;581;21;7;459;5975;4;503;475;13;8;468;5989;4;508;467;13;9;251;3232;4;288;524;11